This is the latest recevied weather packets stored in our database for station/object WA6ODQ-13. If no packets are shown the sender has not sent any weather packets the latest 10 day(s).
| Time | Temp. | Humidity | Pressure | Rain* | Wind** | Luminosity | Snow |
|---|---|---|---|---|---|---|---|
| 1778125001 | 18.33° C | 75% | 1015 hPa | 0 mm | - | 0 W/m² | - |
| 1778124698 | 18.33° C | 75% | 1015.1 hPa | 0 mm | - | 0 W/m² | - |
| 1778124396 | 18.33° C | 75% | 1015.1 hPa | 0 mm | - | 0 W/m² | - |
| 1778124091 | 18.33° C | 74% | 1015 hPa | 0 mm | - | 0 W/m² | - |
| 1778123788 | 18.89° C | 74% | 1015.1 hPa | 0 mm | - | 1 W/m² | - |
| 1778123485 | 18.89° C | 74% | 1015.3 hPa | 0 mm | - | 1 W/m² | - |
| 1778123182 | 18.89° C | 73% | 1015.3 hPa | 0 mm | - | 2 W/m² | - |
| 1778122879 | 19.44° C | 73% | 1015.1 hPa | 0 mm | - | 4 W/m² | - |
| 1778122576 | 19.44° C | 72% | 1015.1 hPa | 0 mm | - | 6 W/m² | - |
| 1778122273 | 20° C | 72% | 1015.1 hPa | 0 mm | - | 9 W/m² | - |
| 1778121971 | 20° C | 71% | 1015 hPa | 0 mm | - | 12 W/m² | - |
| 1778121668 | 20° C | 71% | 1015.1 hPa | 0 mm | - | 15 W/m² | - |
| 1778121363 | 20.56° C | 69% | 1015.1 hPa | 0 mm | - | 19 W/m² | - |
| 1778121061 | 21.67° C | 68% | 1015 hPa | 0 mm | - | 24 W/m² | - |
| 1778120757 | 21.67° C | 67% | 1015.1 hPa | 0 mm | - | 29 W/m² | - |
| 1778120452 | 21.67° C | 66% | 1015 hPa | 0 mm | - | 35 W/m² | - |
| 1778120149 | 21.67° C | 66% | 1015.1 hPa | 0 mm | - | 40 W/m² | - |
| 1778119845 | 22.22° C | 65% | 1015.1 hPa | 0 mm | - | 47 W/m² | - |
| 1778119543 | 22.22° C | 64% | 1015 hPa | 0 mm | - | 54 W/m² | - |
| 1778119234 | 22.78° C | 63% | 1015.1 hPa | 0 mm | - | 62 W/m² | - |
| 1778118933 | 22.22° C | 64% | 1015 hPa | 0 mm | - | 70 W/m² | - |
| 1778118630 | 22.78° C | 63% | 1014.9 hPa | 0 mm | - | 79 W/m² | - |
| 1778118326 | 22.78° C | 63% | 1015.1 hPa | 0 mm | - | 89 W/m² | - |
| 1778118022 | 23.33° C | 63% | 1014.9 hPa | 0 mm | - | 99 W/m² | - |
| 1778117719 | 22.78° C | 63% | 1014.9 hPa | 0 mm | - | 109 W/m² | - |
* Rain latest hour (hover to see other rain measurements)
** Current wind speed in m/s (hover to see current wind gust speed)